Location: Newark
(48.3453°N, 0.5589°E)
Time: 14:17:53
(UTC+00:00)

A-11 Canister half - Pass Details

Date: 06 December 2019
Orbit: 1517 x 1683 km, 47.2° (Epoch: 25 January)

Event Time Altitude Azimuth Distance (km) Brightness Sun altitude
Rises 13:35:09 0° 234° (SW) 4,770 12.7 15.3°
Reaches altitude 10° 13:38:13 10° 231° (SW) 3,809 12.5 15.0°
Maximum altitude 13:47:46 62° 154° (SSE) 1,806 9.9 14.3°
Drops below altitude 10° 13:57:38 10° 77° (ENE) 3,932 10.8 13.5°
Sets 14:00:51 0° 74° (ENE) 4,932 11.2 13.2°
